Location: Mascot
(40.2645°N, 99.5462°W)
Time: 01:02:39
(UTC+00:00)

Daily predictions for brighter satellites

Satellite Brightness Start Highest point End
(mag) Time Altitude Azimuth Time Altitude Azimuth Time Altitude Azimuth
Cosmos 405 Rocket 4.1 02:20:25 10° NNW 02:24:17 44° W 02:28:03 10° SSW
MOS 1 4.4 02:20:09 10° SSE 02:25:51 86° ENE 02:31:35 10° NNW
USA 229 DEB 3.6 02:21:49 10° SSW 02:28:09 63° ESE 02:34:49 10° NE
STARLINK-1170 4.1 02:24:11 10° WNW 02:28:14 56° SW 02:32:17 10° SE
USA 229 3.6 02:21:57 10° SSW 02:28:16 62° ESE 02:34:55 10° NE
STARLINK-1201 4.3 02:25:05 10° SSW 02:28:49 34° SE 02:32:34 10° ENE
Cosmos 1908 Rocket 4.5 02:26:00 10° NNE 02:29:59 32° ENE 02:33:59 10° SE
ATLAS CENTAUR R/B 3.7 02:26:17 10° WSW 02:30:06 29° NW 02:32:16 10° NNE
Cosmos 389 Rocket 3.4 02:27:32 10° SSE 02:30:29 27° E 02:33:30 10° NNE
ISS -0.8 02:31:39 10° NNW 02:33:07 12° N 02:34:34 10° NNE
STARLINK-1150 4.2 02:29:12 10° WNW 02:33:13 50° SW 02:37:13 10° SSE
STARLINK-1206 4.1 02:29:58 10° SSW 02:33:46 37° SE 02:37:36 10° ENE
Cosmos 1464 Rocket 4.1 02:28:20 10° N 02:34:42 72° E 02:41:03 10° SSE
NOSS 3-1 (C) 3.2 02:30:53 10° SSW 02:36:11 75° ESE 02:42:17 10° NE
Cosmos 2251 Rocket 3.6 02:32:07 10° NNW 02:37:24 89° WSW 02:42:37 10° SSE
DMSP B5D2-2 4.1 02:32:09 10° NNE 02:37:26 67° ESE 02:42:40 10° S
NOSS 3-1 (A) 3.5 02:32:28 10° S 02:37:30 45° ESE 02:43:12 10° NE
STARLINK-1151 4.4 02:34:13 10° WNW 02:38:11 45° SW 02:42:08 10° SSE
Resurs 1-3 3.9 02:34:04 10° SSE 02:38:18 52° ENE 02:42:35 10° N
STARLINK-1205 4.0 02:34:50 10° SSW 02:38:44 41° SE 02:42:38 10° ENE
Okean 1 4.0 02:36:25 10° SSE 02:40:05 35° E 02:43:48 10° NNE
STARLINK-1171 4.4 02:36:31 10° NW 02:40:30 43° NNE 02:44:27 10° ESE
Ariane Rocket 3.9 02:38:23 10° S 02:43:16 49° W 02:48:12 10° NNW
STARLINK-1218 3.9 02:39:43 10° SSW 02:43:40 45° SE 02:47:38 10° ENE
STARLINK-1155 4.3 02:41:28 10° NW 02:45:29 47° NNE 02:49:22 11° ESE
Cosmos 2242 Rocket 3.6 02:42:02 10° S 02:46:22 66° E 02:50:45 10° NNE
FREGAT/IRIS 4.3 02:44:16 10° SSW 02:46:37 27° W 02:48:59 10° NW
STARLINK-1254 3.8 02:44:38 10° SSW 02:48:38 50° SE 02:52:39 10° ENE
NOSS 2-3 (C) 3.9 02:44:42 10° S 02:48:38 41° ESE 02:53:02 10° NE
STARLINK-1166 4.2 02:46:25 10° NW 02:50:28 51° NE 02:54:08 12° ESE
CZ-2C R/B 3.7 02:46:21 10° NNE 02:50:49 87° WNW 02:55:19 10° SSW
MetOp-A 4.2 02:46:13 10° SSE 02:51:34 90° WSW 02:56:57 10° NNW
STARLINK-1234 4.4 02:50:33 10° WSW 02:53:30 40° NNW 02:56:29 10° NE
STARLINK-1231 3.7 02:49:34 10° SW 02:53:37 56° SE 02:57:41 10° ENE
Cosmos 1666 3.8 02:51:06 10° NNW 02:54:48 45° W 02:58:27 10° SSW
STARLINK-1212 3.7 02:51:47 10° WSW 02:54:50 54° NW 02:57:54 10° NE
STARLINK-1105 3.7 02:52:16 10° WSW 02:55:19 54° NW 02:58:21 10° NE
STARLINK-1165 4.0 02:51:24 10° NW 02:55:29 55° NE 02:58:55 14° ESE
STARLINK-1247 3.7 02:53:10 10° WSW 02:56:13 53° NW 02:59:17 10° NE
STARLINK-1227 3.8 02:53:38 10° WSW 02:56:41 52° NW 02:59:44 10° NE
Cosmos 1536 3.9 02:52:51 10° NNW 02:56:45 46° W 03:00:37 10° SSW
STARLINK-1226 3.8 02:54:30 10° WSW 02:57:32 51° NW 03:00:35 10° NE
Cosmos 2056 Rocket 3.9 02:52:56 10° S 02:57:39 39° ESE 03:02:24 10° NE
STARLINK-1215 3.9 02:55:27 10° WSW 02:58:29 50° NW 03:01:32 10° NE
STARLINK-1232 3.6 02:54:31 10° SW 02:58:35 62° SE 03:02:41 10° ENE
STARLINK-1217 3.9 02:57:14 10° WSW 03:00:15 48° NW 03:03:17 10° NE
STARLINK-1169 3.9 02:56:21 10° NW 03:00:28 60° NE 03:03:42 16° ESE
ARGOS 4.5 02:55:32 10° SSW 03:00:30 39° W 03:05:32 10° NNW
CZ-2C R/B 2.9 02:55:26 10° N 03:01:03 82° WNW 03:06:40 10° SSW
STARLINK-1229 4.0 02:58:09 10° WSW 03:01:11 47° NW 03:04:12 10° NE
STARLINK-1270 4.0 02:59:02 10° WSW 03:02:03 46° NW 03:05:04 10° NE
Cosmos 44 Rocket 3.3 02:58:22 10° NNW 03:03:17 85° ENE 03:07:23 15° SSE
STARLINK-1208 3.5 02:59:26 10° SW 03:03:32 69° SE 03:07:39 10° NE
STARLINK-1189 4.1 03:00:53 10° WSW 03:03:53 44° NW 03:06:54 10° NE
STARLINK-1188 4.2 03:01:47 10° WSW 03:04:46 44° NW 03:07:47 10° NE
STARLINK-1178 3.8 03:01:19 10° NW 03:05:27 66° NE 03:08:29 17° ESE
Tsikada Rocket 4.0 03:01:00 10° S 03:07:10 70° E 03:13:18 10° NNE
STARLINK-1191 4.3 03:04:17 10° WSW 03:07:14 41° NW 03:10:13 10° NE
STARLINK-1221 4.3 03:05:10 10° WSW 03:08:07 40° NW 03:11:04 10° NE
STARLINK-1271 3.5 03:04:24 10° SW 03:08:30 76° SE 03:12:39 10° NE
Cosmos 1515 4.1 03:05:26 13° SSE 03:08:34 44° E 03:12:12 10° NNE
STARLINK-1222 4.4 03:06:04 10° WSW 03:09:01 40° NW 03:11:58 10° NE
Abrixas rocket 4.1 03:07:08 10° W 03:09:45 28° NNW 03:12:22 10° NE
STARLINK-1214 4.4 03:06:59 10° WSW 03:09:55 39° NW 03:12:52 10° NE
STARLINK-1120 3.7 03:06:17 10° NW 03:10:26 72° NE 03:13:16 19° ESE
STARLINK-1154 3.5 03:09:22 10° SW 03:13:29 83° SE 03:17:39 10° NE
Meteor 1-19 Rocket 4.2 03:09:05 10° S 03:14:33 63° E 03:20:12 10° NNE
CREW DRAGON DEMO-1 DEB 4.0 03:12:24 10° NW 03:15:19 36° NNE 03:17:09 18° E
STARLINK-1131 3.6 03:11:15 10° NW 03:15:24 79° NE 03:18:02 22° SE
Okean 3 4.5 03:13:52 20° SE 03:15:53 29° E 03:19:36 10° NNE
Lacrosse 5 4.1 03:12:43 10° NNW 03:16:08 18° NNE 03:19:31 10° ENE
Terra 3.9 03:14:02 10° E 03:16:21 14° ENE 03:18:43 10° NNE
Cosmos 2278 Rocket 2.7 03:11:29 10° S 03:16:40 38° ESE 03:21:53 10° NE
ASTEX 1 4.3 03:12:24 10° SSW 03:17:06 49° W 03:21:52 10° NNW
STARLINK-1157 3.5 03:15:01 10° WNW 03:18:16 52° SW 03:19:58 24° SSE
STARLINK-1197 3.6 03:14:20 10° SW 03:18:28 89° NW 03:22:37 10° NE
STARLINK-1087 2.4 03:18:17 10° NW 03:20:12 42° NE 03:20:26 39° ENE
STARLINK-1190 3.6 03:16:11 10° NW 03:20:21 86° NE 03:22:47 24° SE
USA 245 3.7 03:21:31 24° SE 03:23:15 38° ENE 03:26:16 10° N
STARLINK-1198 3.7 03:19:17 10° SW 03:23:25 82° NW 03:27:34 10° NE
Okean 1-7 3.1 03:20:06 10° S 03:24:23 79° W 03:28:41 10° N
Meteor 1-18 Rocket 4.2 03:19:00 10° S 03:24:33 88° W 03:30:12 10° N
STARLINK-1129 3.6 03:21:12 10° NW 03:25:21 86° SW 03:27:36 26° SE
Meteor 1-4 Rocket 2.5 03:23:36 22° SSE 03:25:36 56° E 03:29:00 10° NNE
Cosmos 2221 Rocket 4.3 03:24:22 23° SE 03:26:31 36° E 03:30:41 10° NNE
Cosmos 1844 Rocket 4.3 03:21:19 10° SW 03:26:32 37° WNW 03:31:47 10° N
Hubble Space Telescope 2.6 03:24:21 10° SW 03:26:52 16° S 03:26:52 16° S
STARLINK-1199 3.8 03:24:18 10° SW 03:28:25 75° NW 03:32:34 10° NE
STARLINK-1134 3.6 03:26:13 10° NW 03:30:21 79° SW 03:32:25 29° SE
Resurs 01 Rocket 2.1 03:29:31 13° S 03:33:19 57° W 03:37:44 10° NNW
STARLINK-1210 3.9 03:29:17 10° WSW 03:33:23 69° NW 03:37:32 10° NE
Cosmos 1420 Rocket 4.3 03:31:38 19° SSE 03:35:03 45° ESE 03:39:59 10° NNE
STARLINK-1135 3.6 03:31:09 10° NW 03:35:18 71° SW 03:37:10 31° SE
Cosmos 407 Rocket 3.5 03:29:57 10° NNW 03:35:20 87° ENE 03:38:42 23° SSE
Cosmos 371 Rocket 4.2 03:34:23 25° SE 03:35:36 29° E 03:39:45 10° NE
STARLINK-1219 4.1 03:34:17 10° WSW 03:38:23 63° NW 03:42:30 10° NE
STARLINK-1141 3.7 03:36:10 10° NW 03:40:17 64° SW 03:41:58 33° SSE
Sich 1 Rocket 3.6 03:37:07 10° N 03:41:42 71° E 03:44:00 29° SSE
ATLAS 3B CENTAUR R/B 4.2 03:34:50 10° SW 03:42:02 19° S 03:43:02 19° SSE
ERBS 2.3 03:42:53 45° SSE 03:43:19 49° SE 03:46:32 10° NE
STARLINK-1211 4.3 03:39:17 10° WSW 03:43:21 57° NW 03:47:27 10° NE
STARLINK-1140 3.8 03:41:08 10° WNW 03:45:13 58° SW 03:46:43 35° SSE
SPOT 1/Viking Rocket 3.6 03:45:02 28° SE 03:47:40 63° ENE 03:52:46 10° N
NOSS 2-3 (E) 4.5 03:44:13 10° SW 03:48:20 51° NW 03:53:06 10° NNE
STARLINK-1245 4.4 03:44:19 10° WSW 03:48:21 53° NW 03:52:25 10° NE
Cosmos 1782 Rocket 4.0 03:44:33 10° NNW 03:48:59 62° W 03:51:50 21° S
Meteor 1-13 Rocket 4.4 03:46:32 27° SSE 03:49:16 50° E 03:54:43 10° NNE
Cosmos 1544 3.2 03:46:17 10° NNW 03:49:55 68° W 03:51:24 33° S
Cosmos 724 4.3 03:44:10 10° NNW 03:50:06 88° ENE 03:53:17 29° SSE
STARLINK-1156 4.0 03:46:09 10° WNW 03:50:12 52° SW 03:51:31 36° S
Cosmos 1743 4.4 03:47:49 10° NNW 03:51:08 29° W 03:54:10 11° SSW
Meteor 2-4 Rocket 3.5 03:47:04 18° S 03:51:12 81° E 03:56:34 10° NNE
COSMOS 2406 3.2 03:45:36 10° NNW 03:51:24 74° ENE 03:54:17 31° SE
SPOT 5 3.6 03:49:21 28° ESE 03:51:26 42° ENE 03:56:23 10° N
SAR-Lupe-2 3.7 03:48:08 10° N 03:51:44 72° WNW 03:53:51 23° SSW
Cosmos 2142 Rocket 4.5 03:45:48 10° N 03:51:54 65° E 03:55:11 28° SSE
STARLINK-1203 4.3 03:54:42 34° ESE 03:54:42 34° ESE 03:57:42 10° ENE
STARLINK-1148 4.1 03:51:10 10° WNW 03:55:09 47° SW 03:56:17 36° S
SL-4 R/B 3.7 03:53:51 10° NNE 03:55:31 13° NE 03:55:53 13° ENE
Cosmos 1190 Rocket 4.1 03:52:20 10° NNW 03:57:32 72° WSW 04:00:12 29° S
Okean 2 Rocket 3.1 03:53:59 10° N 03:58:24 64° E 03:59:43 42° SE
STARLINK-1158 4.3 03:56:11 10° WNW 04:00:07 43° SW 04:01:05 36° S
STARLINK-1241 4.5 04:01:57 33° E 04:01:57 33° E 04:04:36 10° ENE
STARLINK-1088 4.4 03:58:25 10° NW 04:02:25 46° NNE 04:03:56 31° E
STARLINK-1162 4.4 04:01:11 10° WNW 04:05:03 38° SW 04:05:51 35° SSW
STARLINK-1239 4.3 04:06:43 37° E 04:06:43 37° E 04:09:37 10° ENE
STARLINK-1115 4.2 04:03:22 10° NW 04:07:25 49° NE 04:08:42 35° E
Cosmos 1140 Rocket 3.7 04:03:17 10° NNW 04:08:25 64° WSW 04:10:46 32° S
Landsat 7 4.0 04:06:44 32° S 04:08:54 67° WSW 04:13:39 10° NNW
Cosmos 1975 4.1 04:05:27 10° NNW 04:09:13 37° W 04:11:15 22° SW
STARLINK-1240 4.0 04:11:29 43° E 04:11:29 43° E 04:14:38 10° ENE
ISS -1.1 04:08:42 10° NNW 04:10:59 17° NNE 04:13:01 11° NE
Cosmos 2151 Rocket 3.7 04:07:00 10° N 04:11:30 61° E 04:12:27 49° SE
STARLINK-1076 4.1 04:08:20 10° NW 04:12:25 54° NE 04:13:29 40° E
Cosmos 2297 4.5 04:12:54 31° ESE 04:13:06 31° ESE 04:18:04 10° NE
Nadezhda 4 Rocket 4.4 04:11:46 35° SE 04:13:36 44° E 04:19:21 10° NNE
GENESIS II 4.4 04:09:49 10° NNW 04:13:48 59° NE 04:14:20 53° E
BREEZE-M DEB 3.9 04:15:51 28° ENE 04:15:51 28° ENE 04:18:34 10° ENE
Okean 1 Rocket 4.2 04:11:21 10° NNE 04:15:17 29° ENE 04:15:37 29° E
STARLINK-1216 3.8 04:16:16 50° E 04:16:16 50° E 04:19:37 10° ENE
Aureole 1 Rocket 4.1 04:12:46 10° NNW 04:16:55 46° WSW 04:19:15 28° SSW
STARLINK-1092 3.9 04:13:17 10° NW 04:17:23 58° NE 04:18:15 46° E
STARLINK-1237 3.6 04:21:01 59° E 04:21:01 59° E 04:24:37 10° NE
ERS-1 Rocket 2.9 04:20:26 44° S 04:22:05 85° WSW 04:27:09 10° NNW
STARLINK-1080 3.8 04:18:17 10° NW 04:22:24 64° NE 04:23:04 54° E
Cosmos 304 Rocket 4.3 04:23:56 39° E 04:23:56 39° E 04:28:07 10° NE
Cosmos 2279 Rocket 4.0 04:17:56 10° N 04:24:12 84° W 04:26:58 36° S
Cosmos 1954 Rocket 4.1 04:19:21 10° NNW 04:24:35 72° WSW 04:26:17 43° S
STARLINK-1202 3.5 04:25:48 69° E 04:25:48 69° E 04:29:37 10° NE
STARLINK-1090 3.6 04:23:14 10° NW 04:27:23 70° NE 04:27:51 63° E
SeaSat 1 2.8 04:22:51 10° NE 04:27:22 42° ESE 04:27:22 42° ESE
Cosmos 332 Rocket 3.7 04:27:14 53° S 04:28:17 72° ESE 04:33:11 10° NNE
Cosmos 2082 Rocket 2.4 04:24:25 10° NNW 04:30:05 59° ENE 04:31:41 43° ESE
STARLINK-1089 3.5 04:28:13 10° NW 04:32:22 77° NE 04:32:37 73° E
Cosmos 1437 Rocket 2.6 04:33:49 84° NW 04:33:49 84° NW 04:37:34 10° N
CARTOSAT-1 3.8 04:33:48 53° SSW 04:34:33 63° W 04:38:50 10° NNW
STARLINK-1246 3.4 04:35:20 85° SSW 04:35:25 88° SE 04:39:35 10° NE
STARLINK-1107 3.5 04:33:11 10° NW 04:37:21 84° NE 04:37:24 83° ENE
Cosmos 676 Rocket 4.5 04:32:25 10° NNW 04:37:30 52° WSW 04:39:02 39° SSW
Cosmos 1833 Rocket 2.7 04:32:33 10° NNW 04:38:09 74° WSW 04:39:38 49° S
STARLINK-1224 3.5 04:40:05 75° WSW 04:40:24 85° NW 04:44:33 10° NE
STARLINK-1066 3.5 04:38:11 10° NW 04:42:12 84° WNW 04:42:12 84° WNW
Cosmos 2369 Rocket 4.1 04:44:15 16° E 04:44:15 16° E 04:46:21 10° ENE
Meteor 1-15 Rocket 4.3 04:38:43 10° N 04:44:40 75° E 04:46:06 53° SSE
STARLINK-1225 3.6 04:44:51 64° WSW 04:45:23 78° NW 04:49:32 10° NE
Cosmos 1066 Rocket 4.0 04:45:52 56° S 04:47:04 83° E 04:52:28 10° N
STARLINK-1081 3.7 04:43:09 10° NW 04:46:58 73° W 04:46:58 73° W
Cosmos 1331 Rocket 4.3 04:47:37 47° E 04:47:37 47° E 04:52:17 10° NNE
BREEZE M DEB (TANK) 3.9 04:43:26 10° WSW 04:48:21 38° NNW 04:49:37 23° NNE
BREEZE-M DEB (TANK) 3.8 04:49:21 48° E 04:49:21 48° E 04:57:00 10° ENE
STARLINK-1230 3.8 04:49:38 55° W 04:50:22 71° NW 04:54:31 10° NE
Cosmos 1092 Rocket 4.1 04:50:49 49° SE 04:51:50 55° E 04:57:48 10° NNE
STARLINK-1070 3.8 04:48:08 10° NW 04:51:45 63° W 04:51:45 63° W
Cosmos 1943 Rocket 3.4 04:53:31 27° E 04:53:31 27° E 04:57:10 10° NE
Terra 1.9 04:52:55 60° SW 04:53:31 67° W 04:58:16 10° NNW
STARLINK-1243 3.9 04:54:23 47° W 04:55:21 65° NW 04:59:29 10° NE
STARLINK-1069 4.1 04:53:06 10° NW 04:56:31 55° W 04:56:31 55° W
Lacrosse 5 2.1 04:54:59 10° NW 05:00:01 61° NE 05:00:44 55° E
STARLINK-1236 4.1 04:59:09 41° W 05:00:20 59° NW 05:04:27 10° NE
Cosmos 1766 4.3 04:56:57 10° N 04:59:56 38° NE 04:59:56 38° NE
Cosmos 2278 Rocket 3.9 04:55:50 10° WSW 05:00:48 31° WNW 05:05:48 10° N
STARLINK-1085 4.3 04:58:07 10° WNW 05:01:20 47° W 05:01:20 47° W
EXPRESS MD2 4.0 05:01:28 33° WSW 05:03:11 70° NNW 05:10:19 10° NE
Cosmos 1461 3.5 05:08:19 50° NNE 05:08:19 50° NNE 05:11:35 10° NNE
STARLINK-1269 4.4 05:08:40 31° W 05:10:18 50° NW 05:14:21 10° NE
Thor Agena Rocket 3.5 05:05:03 10° NNE 05:10:20 69° ESE 05:10:27 69° ESE
Cosmos 2195 Rocket 4.4 05:12:59 60° SSE 05:14:01 72° E 05:20:19 10° NNE
Cosmos 1733 4.4 05:14:44 10° N 05:17:19 37° NNE 05:17:19 37° NNE
Cosmos 1428 Rocket 4.4 05:24:11 62° SE 05:24:56 68° E 05:31:12 10° NNE
Cosmos 1975 Rocket 3.4 05:29:24 62° NNE 05:29:24 62° NNE 05:33:08 10° N
SL-4 R/B 4.2 05:26:01 10° NW 05:26:43 15° NW 05:26:43 15° NW
Cosmos 1470 4.4 05:39:41 10° N 05:41:59 29° NNE 05:41:59 29° NNE
Cosmos 1553 Rocket 4.2 05:37:16 10° N 05:43:29 56° E 05:44:06 54° ESE
Cosmos 2026 Rocket 3.9 05:44:01 65° SW 05:44:56 77° W 05:51:16 10° N
ISS -1.1 05:44:54 10° NW 05:45:55 18° NW 05:45:55 18° NW
Meteor 1-22 Rocket 4.4 05:46:44 10° NNW 05:52:37 63° W 05:52:58 62° WSW
USA 215 3.2 05:55:04 57° ESE 05:56:33 84° NE 06:03:08 10° NW
Helios 1A 4.4 06:00:24 32° NE 06:00:24 32° NE 06:03:23 10° N
Aureole 3 Rocket 4.0 05:54:19 10° N 05:59:57 84° E 06:00:52 69° SSE
SeaSat 1 4.3 06:00:46 10° N 06:04:50 27° NW 06:07:07 19° W
Cosmos 1455 Rocket 4.0 06:01:31 10° NNW 06:04:42 44° NW 06:04:42 44° NW
Cosmos 1025 Rocket 4.0 06:13:04 44° NNE 06:13:04 44° NNE 06:16:02 10° N
Cosmos 2082 Rocket 4.0 06:09:46 10° WNW 06:13:32 19° W 06:13:32 19° W
Cosmos 2266 Rocket 4.1 06:14:24 57° E 06:14:32 57° E 06:20:28 10° NNE
Cosmos 968 Rocket 3.9 06:13:08 10° N 06:17:58 55° NE 06:17:58 55° NE
NOSS 3-4 (A) 3.9 06:19:43 46° E 06:19:43 46° E 06:24:48 10° NE
NOSS 3-4 (C) 3.9 06:19:49 46° E 06:19:49 46° E 06:24:54 10° NE
ALOS 2 3.6 06:26:19 43° NW 06:26:19 43° NW 06:29:26 10° NNW
Cosmos 2369 Rocket 2.3 06:26:00 64° W 06:26:16 65° WNW 06:31:55 10° NNE
ATLAS 3B R/B 4.4 06:21:24 10° NNW 06:27:08 28° NE 06:33:00 10° E
Cosmos 1536 Rocket 4.5 06:29:30 45° NNW 06:29:30 45° NNW 06:32:37 10° N
Cosmos 1486 Rocket 4.1 06:23:16 10° NNW 06:28:04 73° NNW 06:28:04 73° NNW
Cosmos 1726 4.1 06:26:58 10° N 06:28:53 27° NNE 06:28:53 27° NNE
Meteor 2-19 Rocket 4.3 06:30:51 77° ESE 06:31:03 78° E 06:37:12 10° N
CENTAUR R/B 3.6 06:23:18 10° NNW 06:31:20 59° NE 06:36:06 29° ESE
Cosmos 1943 Rocket 3.1 06:35:00 35° W 06:36:02 38° WNW 06:41:14 10° N
Cosmos 2098 Rocket 4.3 06:36:16 54° ESE 06:36:58 57° E 06:44:03 10° NNE
Cosmos 292 Rocket 4.4 06:37:32 50° NW 06:37:32 50° NW 06:41:48 10° N
Lacrosse 5 4.1 06:38:47 10° WNW 06:39:54 15° W 06:39:54 15° W
Cosmos 2228 4.5 06:39:48 10° N 06:42:50 31° NE 06:42:50 31° NE
Cosmos 1953 3.8 06:39:46 10° N 06:42:10 35° NNW 06:42:10 35° NNW
Cosmos 1340 Rocket 4.2 06:40:55 10° N 06:43:29 37° N 06:43:29 37° N
ATLAS 2AS CENTAUR R/B 2.9 06:45:27 61° SSW 06:47:08 85° ESE 06:55:10 10° NE
Cosmos 2315 Rocket 4.0 06:44:48 10° N 06:51:00 68° E 06:51:33 65° ESE
NOSS 3-2 (A) 4.1 06:50:35 10° NW 06:58:16 67° WSW 06:59:36 59° SSW
Meteor 2-15 4.3 06:53:58 10° N 07:00:08 84° W 07:00:25 81° SSW
BREEZE-M DEB (TANK) 4.4 06:57:16 10° WNW 07:02:05 37° WNW 07:02:05 37° WNW
COSMOS 2455 2.7 07:04:08 74° ESE 07:04:08 74° ESE 07:10:08 10° NNE
USA 238 DEB 3.9 06:58:29 10° NW 07:05:36 58° WSW 07:05:58 57° SW
USA 238 3.9 06:58:34 10° NW 07:05:42 59° WSW 07:06:06 58° SW
Cosmos 1606 Rocket 4.4 07:04:01 10° N 07:07:15 48° NNE 07:07:15 48° NNE
SL-4 R/B 3.0 07:11:24 52° NE 07:11:24 52° NE 07:15:03 10° NE
Cosmos 1674 4.4 07:12:36 31° N 07:12:36 31° N 07:14:42 10° N
ATLAS 5 CENTAUR R/B 4.2 07:13:39 13° NNW 07:13:39 13° NNW 07:14:16 10° N
Meteor 2-15 Rocket 4.3 07:10:38 10° N 07:16:48 78° W 07:17:09 75° SW
Cosmos 1833 4.2 07:12:22 10° NNW 07:17:32 66° WNW 07:17:32 66° WNW
Cosmos 1656 Rocket 4.2 07:19:15 46° W 07:19:48 47° WNW 07:25:13 10° NNE
Exosat Rocket 4.4 07:10:27 10° NNW 07:20:04 81° WSW 07:21:38 59° S
ATLAS CENTAUR R/B 2.3 07:21:34 48° NNE 07:21:34 48° NNE 07:24:39 10° NNE
CZ-4 R/B 4.2 07:17:53 10° N 07:22:09 56° NW 07:22:09 56° NW
PSLV R/B 4.2 07:21:11 10° N 07:25:01 53° NW 07:25:01 53° NW
FALCON 9 R/B 3.0 07:32:37 56° S 07:33:18 58° SSE 07:50:24 10° E
Cosmos 2297 Rocket 4.5 07:32:21 10° N 07:36:33 21° NE 07:40:43 10° E
RESURS DK-1 3.2 07:42:47 49° NE 07:42:47 49° NE 07:45:55 10° NNE
Cosmos 1777 Rocket 4.0 07:37:02 10° NNW 07:42:17 72° ENE 07:42:43 68° ESE
Cosmos 1892 Rocket 4.2 07:43:30 51° NW 07:43:30 51° NW 07:47:06 10° N
Meteor 2-21 4.3 07:42:04 66° SW 07:42:47 73° W 07:48:57 10° N
Cosmos 1356 Rocket 4.4 07:46:18 10° N 07:50:13 39° ENE 07:50:19 39° E
BREEZE-M R/B 3.3 07:51:52 66° ENE 07:51:52 66° ENE 07:54:44 10° ENE
SL-19 R/B 4.1 07:46:27 10° NNE 07:51:53 78° WNW 07:52:29 69° SW
CZ-4C R/B 4.2 07:53:36 46° E 07:53:49 46° ENE 07:57:57 10° N
Helios 1B rocket 4.1 07:51:35 10° NNW 07:54:28 24° NW 07:54:28 24° NW
ATLAS CENTAUR R/B 4.3 07:56:01 10° N 07:58:26 21° NE 08:02:36 10° E
SL-16 R/B 3.0 07:56:22 31° SE 07:59:16 58° ENE 08:05:19 10° N
Cosmos 1867 3.6 07:54:12 10° NW 07:59:09 60° W 07:59:09 60° W
Timation 2 Rocket 3.9 07:55:31 10° NNW 08:01:52 80° ENE 08:04:08 41° SE
DELTA 2 DEB (DPAF) 4.1 08:04:49 80° NNW 08:04:49 80° NNW 08:09:04 10° NNW
BREEZE-M DEB (TANK) 4.5 08:08:08 10° NW 08:10:45 18° N 08:12:29 10° NE
Meteor 1-24 Rocket 4.0 08:10:46 45° W 08:11:11 46° WNW 08:16:21 10° N
Cosmos 1697 Rocket 4.3 08:10:09 20° SE 08:12:07 24° ESE 08:16:33 10° NE
Cosmos 2227 Rocket 3.8 08:07:24 10° N 08:12:30 33° ENE 08:17:34 10° ESE
Cosmos 1745 Rocket 3.9 08:11:24 56° SSW 08:12:50 84° W 08:19:00 10° N
CZ-2D R/B 2.1 08:09:21 10° NNE 08:14:36 71° ESE 08:15:32 57° SSE
ADEOS II 3.6 08:11:12 10° NE 08:15:39 27° E 08:17:53 20° SE
ATLAS 3B R/B 2.6 08:11:33 10° NW 08:18:21 70° WSW 08:21:15 38° SSE
Cosmos 2084 3.4 08:18:25 78° WNW 08:18:27 78° NW 08:22:56 10° NNE
USA 81 4.3 08:19:00 47° SSE 08:20:22 64° E 08:25:36 10° N
Cosmos 2058 Rocket 4.2 08:16:51 10° NNW 08:20:04 32° WNW 08:20:04 32° WNW
Cosmos 1300 4.0 08:17:19 10° NNW 08:19:45 32° NW 08:19:45 32° NW
CENTAUR R/B 3.7 08:14:27 10° NW 08:21:58 38° WSW 08:23:12 36° SW
Resurs 1-4 Rocket 2.0 08:18:05 10° NNE 08:23:24 88° ESE 08:24:31 58° S
SJ 16-02 2.9 08:19:46 10° N 08:23:48 33° ENE 08:26:56 15° SE
Cosmos 1626 4.0 08:27:14 20° NW 08:27:14 20° NW 08:29:20 10° NNW
STARLINK-1346 4.5 08:28:14 34° ENE 08:28:14 34° ENE 08:30:10 10° NE
STARLINK-1328 4.5 08:28:36 33° ENE 08:28:36 33° ENE 08:30:30 10° NE
Cosmos 921 Rocket 3.7 08:27:30 39° WNW 08:27:30 39° WNW 08:31:27 10° N
STARLINK-1354 4.5 08:28:54 33° ENE 08:28:54 33° ENE 08:30:47 10° NE
STARLINK-1347 4.4 08:29:15 34° ENE 08:29:15 34° ENE 08:31:09 10° NE
STARLINK-1357 4.4 08:29:33 34° ENE 08:29:33 34° ENE 08:31:29 10° NE
STARLINK-1335 4.4 08:29:53 35° ENE 08:29:53 35° ENE 08:31:49 10° NE
STARLINK-1327 4.4 08:30:12 35° ENE 08:30:12 35° ENE 08:32:09 10° NE
STARLINK-1340 4.4 08:30:33 35° ENE 08:30:33 35° ENE 08:32:31 10° NE
STARLINK-1356 4.4 08:30:52 36° NE 08:30:52 36° NE 08:32:51 10° NE
STARLINK-1345 4.3 08:31:12 36° NE 08:31:12 36° NE 08:33:12 10° NE
STARLINK-1355 4.3 08:31:30 36° NE 08:31:30 36° NE 08:33:31 10° NE
STARLINK-1338 3.9 08:31:19 48° ENE 08:31:19 48° ENE 08:33:58 10° NE
STARLINK-1321 4.3 08:31:50 37° NE 08:31:50 37° NE 08:33:51 10° NE
STARLINK-1358 4.3 08:32:11 37° NE 08:32:11 37° NE 08:34:12 10° NE
STARLINK-1332 4.3 08:32:28 37° NE 08:32:28 37° NE 08:34:31 10° NE
STARLINK-1348 4.2 08:32:50 38° NE 08:32:50 38° NE 08:34:53 10° NE
STARLINK-1330 4.2 08:33:08 38° NE 08:33:08 38° NE 08:35:12 10° NE
GEOS 3 Rocket 4.2 08:32:59 37° W 08:32:59 37° W 08:37:06 10° NW
STARLINK-1363 4.2 08:33:27 38° NE 08:33:27 38° NE 08:35:33 10° NE
NPP 3.6 08:27:05 10° NNE 08:32:31 90° ESE 08:33:57 51° SSW
STARLINK-1337 4.2 08:33:47 39° NE 08:33:47 39° NE 08:35:53 10° NE
STARLINK-1342 4.2 08:34:06 39° NE 08:34:06 39° NE 08:36:12 10° NE
STARLINK-1364 4.2 08:34:26 40° NE 08:34:26 40° NE 08:36:34 10° NE
STARLINK-1376 4.1 08:34:47 40° NE 08:34:47 40° NE 08:36:55 10° NE
STARLINK-1360 4.1 08:35:02 41° NE 08:35:02 41° NE 08:37:12 10° NE
Cosmos 468 Rocket 4.2 08:32:55 44° SSE 08:34:16 59° ESE 08:39:19 10° NNE
STARLINK-1361 4.1 08:35:28 41° NE 08:35:28 41° NE 08:37:37 10° NE
STARLINK-1371 3.7 08:35:16 56° ENE 08:35:16 56° ENE 08:38:08 10° NE
STARLINK-1367 4.1 08:35:41 42° NE 08:35:41 42° NE 08:37:54 10° NE
Cosmos 1626 Rocket 3.9 08:35:09 47° WNW 08:35:09 47° WNW 08:39:18 10° N
STARLINK-1366 4.1 08:36:04 42° NE 08:36:04 42° NE 08:38:15 10° NE
Cosmos 1656 3.7 08:34:04 46° S 08:35:44 72° ESE 08:41:22 10° NNE
STARLINK-1341 3.6 08:37:16 60° ENE 08:37:16 60° ENE 08:40:13 10° NE
Meteor 1-21 Rocket 4.1 08:36:33 46° S 08:38:18 86° E 08:43:59 10° N
STARLINK-1374 3.5 08:39:18 65° NE 08:39:18 65° NE 08:42:21 10° NE
ATLAS 2AS CENTAUR R/B 4.5 08:32:50 12° W 08:39:05 28° NW 08:45:44 10° NNE
STARLINK-1339 3.4 08:41:20 69° NE 08:41:20 69° NE 08:44:27 10° NE
STARLINK-1377 3.3 08:43:24 72° NNE 08:43:24 72° NNE 08:46:37 10° NE
STARLINK-1353 3.3 08:44:23 69° NNE 08:44:23 69° NNE 08:47:29 10° NE
STARLINK-1375 3.2 08:46:16 73° NNE 08:46:16 73° NNE 08:49:31 10° NE
Cosmos 2369 4.5 08:43:42 28° SSE 08:46:09 44° ESE 08:51:29 10° NE
Meteor 2-10 Rocket 3.5 08:42:40 10° N 08:47:59 81° E 08:50:25 32° SSE
STARLINK-1350 3.2 08:48:32 72° N 08:48:32 72° N 08:51:49 10° NE
FALCON 9 DEB 4.4 08:48:28 31° NW 08:48:55 33° NNW 08:52:05 10° NE
SL-4 R/B 4.1 08:46:57 13° WNW 08:50:27 28° NNW 08:54:31 10° NE
STARLINK-1352 3.2 08:51:47 70° NW 08:51:49 70° NW 08:55:20 10° NE
CZ-4C R/B 2.4 08:51:25 37° S 08:53:02 52° ESE 08:58:28 10° NE
STARLINK-1368 3.2 08:53:54 65° NW 08:54:03 66° NW 08:57:33 10° NE
STARLINK-1369 3.2 08:54:56 64° NW 08:55:02 64° NW 08:58:29 10° NE
Alouette 2 Rocket 3.9 08:49:46 10° N 08:55:50 82° ENE 08:57:53 32° SSE
UNK 4.1 08:55:42 43° WSW 08:56:03 44° W 09:00:28 10° NNW
STARLINK-1372 3.4 08:58:13 57° WNW 08:58:33 60° NW 09:02:02 10° NE
Cosmos 1812 Rocket 3.8 08:55:14 10° NNW 08:59:33 48° W 09:00:07 45° WSW
ATLAS CENTAUR R/B 4.0 08:57:58 10° WNW 08:59:49 12° NW 09:01:37 10° NNW
STARLINK-1378 3.5 09:00:23 53° WNW 09:00:49 57° NW 09:04:18 10° NE
STARLINK-1365 3.5 09:00:59 49° WNW 09:01:25 54° NW 09:04:51 10° NE
STARLINK-1329 3.5 09:01:03 51° WNW 09:01:30 57° NW 09:05:00 10° NE
BREEZE-M DEB (TANK) 4.2 09:00:20 10° NW 09:01:38 13° N 09:02:54 10° NNE
Cosmos 1709 Rocket 4.0 09:00:27 35° SW 09:02:58 62° W 09:09:02 10° N
STARLINK-1379 3.6 09:02:34 49° WNW 09:03:05 55° NW 09:06:34 10° NE
Cosmos 1455 2.0 08:59:32 10° NNW 09:03:15 74° W 09:03:48 60° SSW
STARLINK-1362 3.6 09:03:18 47° WNW 09:03:51 54° NW 09:07:20 10° NE
Cosmos 1980 Rocket 3.4 09:00:48 17° SSE 09:04:24 35° ESE 09:09:27 10° NE
Cosmos 2219 3.1 09:00:21 10° NNW 09:05:58 65° WSW 09:09:29 23° S
STARLINK-1373 3.7 09:05:32 44° WNW 09:06:12 52° NW 09:09:41 10° NE
AQUA 4.2 09:01:41 10° N 09:06:17 51° WNW 09:07:44 37° WSW
NOSS 7 (H) 4.1 09:07:07 73° WSW 09:07:22 81° NW 09:10:22 10° NNE
STARLINK-1390 3.7 09:06:48 43° WNW 09:07:27 50° NW 09:10:52 10° NE
Cosmos 1825 Rocket 3.4 09:06:52 45° SSW 09:08:06 73° W 09:12:26 10° N
CZ-4B R/B 4.1 09:08:04 10° N 09:12:57 44° WNW 09:14:58 30° WSW
Cosmos 540 Rocket 3.9 09:11:42 24° S 09:14:40 56° ESE 09:19:42 10° NNE
IRS-1C 4.1 09:10:01 10° NNE 09:15:24 82° ESE 09:18:32 26° S
Cosmos 1400 Rocket 3.9 09:14:48 10° N 09:18:46 44° ENE 09:22:43 10° SSE
Cosmos 990 Rocket 3.9 09:14:30 10° NNW 09:19:46 76° WSW 09:24:26 13° S
Cosmos 2297 Rocket 2.2 09:15:28 10° NNW 09:21:02 61° WSW 09:25:53 14° S
STARLINK-1212 2.6 09:18:08 10° NW 09:21:13 74° SW 09:24:18 10° SE
CBERS-1 4.3 09:16:35 10° N 09:21:34 55° WNW 09:23:58 29° SW
STARLINK-1105 2.6 09:18:35 10° NW 09:21:41 73° SW 09:24:45 10° SE
GP-B 3.5 09:17:37 10° N 09:21:52 46° W 09:23:22 33° SW
STARLINK-1247 2.7 09:19:30 10° NW 09:22:37 71° SW 09:25:43 10° SE
Cosmos-2242 2.9 09:18:24 10° NNW 09:22:38 65° W 09:24:34 30° SSW
STARLINK-1227 2.6 09:19:58 10° NW 09:23:03 70° SW 09:26:07 10° SE
STARLINK-1226 2.7 09:20:49 10° NW 09:23:55 69° SW 09:27:00 10° SE
Cosmos 1703 3.7 09:23:36 36° WSW 09:24:39 46° W 09:28:28 10° N
STARLINK-1215 2.7 09:21:46 10° NW 09:24:52 67° SW 09:27:57 10° SE
Cosmos 2082 3.9 09:19:21 10° NNW 09:25:02 72° ENE 09:30:38 10° SSE
STARLINK-1218 4.5 09:21:10 10° NW 09:25:14 52° NE 09:29:17 10° ESE
STARLINK-1217 2.7 09:23:32 10° NW 09:26:38 64° SW 09:29:43 10° SE
Cosmos 2278 3.9 09:23:50 22° S 09:27:30 68° ESE 09:33:08 10° NNE
STARLINK-1229 2.7 09:24:28 10° WNW 09:27:33 62° SW 09:30:38 10° SE
Cosmos 841 Rocket 3.5 09:24:51 25° SSW 09:28:00 83° ESE 09:33:16 10° NNE
BREEZE M DEB (TANK) 3.2 09:25:32 10° NW 09:28:13 73° NNE 09:35:39 10° ESE
STARLINK-1270 2.8 09:25:20 10° WNW 09:28:25 61° SW 09:31:30 10° SE
STARLINK-1254 4.3 09:26:09 10° NW 09:30:14 56° NE 09:34:19 10° ESE
STARLINK-1189 2.8 09:27:10 10° WNW 09:30:14 58° SW 09:33:18 10° SE
COBE Rocket 4.2 09:25:59 10° SSE 09:30:49 68° ENE 09:35:51 10° N
STARLINK-1188 2.8 09:28:05 10° WNW 09:31:08 56° SW 09:34:12 10° SE
Meteor 1-11 4.2 09:27:25 21° S 09:31:21 88° W 09:36:59 10° N
STARLINK-1187 3.2 09:29:12 10° WNW 09:32:42 41° SSW 09:35:11 10° SSE
STARLINK-1191 2.9 09:30:33 10° WNW 09:33:35 52° SW 09:36:36 10° SE
SL-08 R/B 3.2 09:30:05 13° S 09:34:20 79° WSW 09:39:01 10° NNW
STARLINK-1221 2.9 09:31:25 10° WNW 09:34:26 51° SW 09:37:27 10° SSE
IRS-1D 4.2 09:29:51 10° N 09:34:52 42° WNW 09:37:40 23° SW
STARLINK-1231 4.1 09:31:08 10° NW 09:35:15 61° NE 09:39:21 10° ESE
STARLINK-1222 2.9 09:32:20 10° WNW 09:35:21 50° SW 09:38:20 10° SSE
STARLINK-1214 2.9 09:33:13 10° WNW 09:36:14 49° SW 09:39:13 10° SSE
STARLINK 1040 4.2 09:37:55 20° SSE 09:38:23 22° SE 09:40:29 10° ENE
STARLINK-1232 4.0 09:36:06 10° NW 09:40:14 67° NE 09:44:22 10° ESE
CZ-2C R/B 3.8 09:36:45 10° NNE 09:40:15 40° E 09:43:43 10° S
SL-16 R/B 3.7 09:41:27 19° WSW 09:43:14 21° W 09:47:49 10° NW
Cosmos 2074 Rocket 4.0 09:39:15 16° SSW 09:44:23 76° W 09:50:42 10° N
STARLINK-1208 3.8 09:41:03 10° NW 09:45:12 74° NE 09:49:20 10° ESE
Cosmos 1763 Rocket 4.3 09:43:52 21° WSW 09:46:40 35° WNW 09:51:20 10° N
H-2A R/B 2.3 09:43:31 10° SSE 09:47:47 74° ENE 09:52:11 10° N
STARLINK-1271 3.7 09:46:02 10° NW 09:50:12 80° NE 09:54:20 10° SE
CZ-2D R/B 4.0 09:51:07 10° NNW 09:54:00 15° WNW 09:56:52 10° W
USA 234 3.6 09:48:23 10° NE 09:54:51 60° SE 10:00:31 14° SSW
Cosmos 2058 4.2 09:51:17 10° SSE 09:55:10 40° E 09:59:06 10° NNE
STARLINK-1154 3.6 09:51:01 10° NW 09:55:11 88° NE 09:59:20 10° SE
ADEOS II 2.9 09:50:36 10° N 09:55:22 36° WNW 09:58:49 17° SW
Lacrosse 4 Rocket 1.7 09:51:16 10° NNW 09:55:34 70° ENE 09:59:44 10° SE
Cosmos 1697 Rocket 3.2 09:51:53 19° SW 09:55:44 46° WNW 10:01:12 10° NNE
Cosmos 2184 Rocket 4.0 09:51:04 15° SSW 09:56:16 63° W 10:02:24 10° N
Cosmos 2227 Rocket 2.8 09:51:24 10° NW 09:56:31 35° WSW 10:01:36 10° SSW
STARLINK-1197 3.5 09:55:59 10° NW 10:00:09 85° SW 10:04:18 10° SE
SJ 16-02 2.7 09:58:50 10° NW 10:02:09 21° W 10:03:51 17° SW
SL-16 R/B 3.8 09:57:22 10° SSE 10:02:14 30° ESE 10:07:07 10° NE
Resurs 1-4 Rocket 4.2 10:00:19 10° NW 10:02:27 12° WNW 10:04:35 10° W
USA 129 1.1 10:01:19 10° NNE 10:02:55 51° E 10:02:55 51° E
SL-24 DEB 4.5 09:59:00 10° N 10:03:38 70° E 10:08:13 10° S
ARIANE 5 R/B 2.9 09:59:47 10° N 10:04:37 46° WNW 10:08:37 14° SW
STARLINK-1198 3.5 10:00:57 10° NW 10:05:06 77° SW 10:09:14 10° SE
CZ-4B R/B 4.0 10:03:45 10° ESE 10:06:08 21° ENE 10:08:32 10° NNE
Iridium 2 3.7 10:03:49 10° NNW 10:07:31 58° W 10:11:12 10° S
ATLAS 3B R/B 4.4 10:06:15 10° W 10:07:56 11° WSW 10:08:23 11° WSW
STARLINK-1199 3.5 10:05:59 10° NW 10:10:06 70° SW 10:14:13 10° SE
Spot 4 Rocket 4.2 10:06:07 10° N 10:11:09 57° WNW 10:16:00 11° SSW
MSX 4.1 10:05:56 10° NNE 10:11:43 70° ESE 10:17:25 10° S
STARLINK-43 3.3 10:09:35 16° SW 10:12:23 78° SE 10:16:05 10° NE
Cosmos 1842 Rocket 3.6 10:09:26 10° NNW 10:13:55 71° W 10:18:20 10° S
Cosmos 1610 Rocket 4.5 10:08:38 10° SSW 10:14:42 67° W 10:20:50 10° N
STARLINK-1210 3.6 10:10:58 10° NW 10:15:03 63° SW 10:19:09 10° SE
ERS-2 2.9 10:12:05 10° SSW 10:15:19 32° W 10:18:40 10° NNW
Cosmos 2298 Rocket 4.1 10:11:39 10° NNW 10:16:59 88° ENE 10:22:17 10° SSE
Cosmos 1825 4.5 10:15:35 10° SE 10:18:40 24° E 10:21:45 10° NE
STARLINK-1219 3.6 10:15:57 10° WNW 10:20:01 57° SW 10:24:04 10° SE
STARLINK-55 4.2 10:17:33 11° SSW 10:20:22 32° SE 10:23:17 10° ENE
IDEFIX/ARIANE 42P 2.7 10:15:13 10° N 10:20:28 68° WNW 10:25:40 10° SSW
Meteor 1-27 4.4 10:15:55 10° NNW 10:21:17 51° W 10:26:38 10° SSW
Cosmos 1937 Rocket 4.4 10:18:48 10° NW 10:23:14 28° W 10:27:41 10° SSW
STARLINK-1211 3.7 10:20:56 10° WNW 10:24:58 51° SW 10:28:59 10° SSE
Cosmos 2154 Rocket 4.2 10:22:10 10° SSW 10:28:20 56° W 10:34:29 10° N
STARLINK-1245 3.9 10:25:58 10° WNW 10:29:56 46° SW 10:33:54 10° SSE
STARLINK-28 3.6 10:27:17 10° SSW 10:30:21 46° SE 10:33:26 10° ENE
STARLINK-1233 4.0 10:30:58 10° WNW 10:34:53 42° SW 10:38:48 10° SSE
ADEOS 4.4 10:30:40 10° NNE 10:35:47 53° E 10:40:52 10° S
CZ-2C R/B 3.0 10:33:57 10° NNE 10:39:04 64° ESE 10:44:11 10° S
STARLINK-1204 4.1 10:36:01 10° WNW 10:39:51 38° SW 10:43:42 10° SSE
Cosmos 1076 Rocket 3.6 10:35:39 10° SSW 10:39:57 63° W 10:44:18 10° N
Cosmos 2360 Rocket 4.2 10:36:20 10° SSE 10:40:56 27° ESE 10:45:33 10° NE
ATLAS CENTAUR R/B 4.0 10:36:51 10° WNW 10:41:01 29° SW 10:49:48 10° S
STARLINK-41 3.8 10:38:04 10° SSW 10:41:04 42° SE 10:44:03 10° ENE
Meteor 2-2 Rocket 4.5 10:35:21 10° NNW 10:41:16 60° W 10:47:11 10° S
Landsat 5 4.2 10:37:44 10° SSW 10:41:53 37° W 10:46:07 10° NNW
CZ-4C R/B 3.6 10:37:38 10° W 10:41:55 26° NW 10:46:49 10° NNE
STARLINK-1289 4.4 10:40:07 10° SSW 10:43:01 30° SE 10:45:56 10° ENE
Cosmos 1125 Rocket 3.6 10:38:14 10° NNW 10:43:28 84° ENE 10:48:39 10° SSE
STARLINK-1303 4.4 10:41:33 10° SSW 10:44:31 32° SE 10:47:31 10° ENE
STARLINK-1238 4.2 10:41:01 10° WNW 10:44:48 34° SW 10:48:33 10° SSE
Centaur D-1A AC-31 4.2 10:24:20 10° W 11:13:27 43° SSW 11:20:09 10° SE
